LEKNES current weather conditions

sailwx.info

Wind from 260 at 8 knots

Air temperature 2.0° C
Visibility: greater than 5.4 NM
Dewpoint -4.0° C

Last reported at 2020-Jan-25 12:50 UTC.
Time now 2020-Jan-26 10:12 UTC

Location: N 68°09' E 013°37'.
View on Google Maps.

See reports from other nearby stations

  
Tides and Currents Weather Stations Pressure Air Temp Water Temp Dewpoint Dewpoint Depression Visibility Wind Speed Wind Dir Waves Ship Positions
date/time (UTC)wind fromknots sea level pressurealtimeterstation pressurevisibilityair tempwater tempwave heightnotes
2020-Jan-25 12:50 260 8 5.4 2.0
2020-Jan-25 12:20 250 8 5.4 2.0 Showers in the vicinity.
2020-Jan-25 11:50 250 8 5.4 2.0 Showers in the vicinity.
2020-Jan-25 11:20 250 8 5.4 2.0 Showers in the vicinity.
2020-Jan-25 10:50 260 12 5.4 1.0
2020-Jan-25 10:20 260 12 5.4 1.0
2020-Jan-25 09:50 270 7 5.4 1.0
2020-Jan-24 21:20 270 9 5.4-0.0
2020-Jan-24 20:50 270 9 5.4-0.0
2020-Jan-24 19:50 310 5 5.4-1.0
2020-Jan-24 18:50 250 2 5.4-1.0 Light snow showers.
2020-Jan-24 18:20 170 4 5.4-1.0 Light snow showers.
2020-Jan-24 17:20 5.4-2.0 Light snow showers.
2020-Jan-24 16:20 150 1 5.4-2.0 Showers in the vicinity.
2020-Jan-24 15:50 280 13 5.4-2.0 Light snow showers.
2020-Jan-24 15:20 280 13 5.4-2.0 Light snow showers.
2020-Jan-24 14:50 280 13 0.8-1.0 Light snow showers.
2020-Jan-24 14:20 300 12 1.3-0.0 Light snow showers.
2020-Jan-24 13:20 180 2 5.4-3.0
2020-Jan-24 12:20 030 5 5.4-2.0
2020-Jan-24 11:50 090 2 5.4-3.0
2020-Jan-24 11:20 010 4 5.4-3.0
2020-Jan-24 10:50 5.4-2.0
2020-Jan-24 10:20 5.4-4.0